Location: Wavehorne
(51.0500°N, 0.8333°E)
Time: 02:51:52
(UTC+00:00)

Cosmos 1782 - Pass Details

Date: 20 June 2021
Orbit: 537 x 550 km, 82.5° (Epoch: 04 August)

Event Time Altitude Azimuth Distance (km) Brightness Sun altitude
Rises 02:08:51 0° 351° (N) 2,721 7.3 -10.2°
Reaches altitude 10° 02:11:02 10° 355° (N) 1,826 6.4 -10.0°
Maximum altitude 02:15:02 64° 77° (ENE) 611 3.2 -9.7°
Drops below altitude 10° 02:19:00 10° 160° (SSE) 1,818 5.1 -9.3°
Enters shadow 02:20:54 - 163° (SSE) 2,598 5.9 -9.2°
